TimeCDT,TemperatureF,Dew PointF,Humidity,Sea Level PressureIn,VisibilityMPH,Wind Direction,Wind SpeedMPH,Gust SpeedMPH,PrecipitationIn,Events,Conditions,WindDirDegrees,DateUTC
12:53 AM,64.0,57.9,80,30.15,10.0,North,4.6,-,N/A,,Clear,360,2013-08-04 05:53:00
1:53 AM,62.1,57.9,86,30.16,10.0,North,4.6,-,N/A,,Clear,360,2013-08-04 06:53:00
2:53 AM,62.1,57.9,86,30.15,10.0,NNE,5.8,-,N/A,,Clear,30,2013-08-04 07:53:00
3:53 AM,62.1,57.9,86,30.14,10.0,NE,4.6,-,N/A,,Clear,40,2013-08-04 08:53:00
4:53 AM,61.0,57.0,87,30.16,10.0,NE,4.6,-,N/A,,Clear,40,2013-08-04 09:53:00
5:53 AM,59.0,55.9,90,30.17,10.0,Calm,Calm,-,N/A,,Clear,0,2013-08-04 10:53:00
6:53 AM,64.0,57.9,80,30.17,10.0,NE,5.8,-,N/A,,Unknown,50,2013-08-04 11:53:00
7:53 AM,66.9,55.9,68,30.18,10.0,ENE,9.2,-,N/A,,Clear,60,2013-08-04 12:53:00
8:53 AM,70.0,57.0,63,30.19,10.0,East,6.9,-,N/A,,Clear,90,2013-08-04 13:53:00
9:53 AM,73.0,57.0,57,30.19,10.0,East,5.8,-,N/A,,Clear,100,2013-08-04 14:53:00
10:53 AM,75.9,57.9,54,30.19,10.0,East,4.6,-,N/A,,Clear,90,2013-08-04 15:53:00
11:53 AM,77.0,55.9,48,30.19,10.0,East,4.6,-,N/A,,Clear,100,2013-08-04 16:53:00
12:53 PM,77.0,55.0,47,30.17,10.0,East,4.6,-,N/A,,Clear,80,2013-08-04 17:53:00
1:53 PM,79.0,55.0,44,30.16,10.0,Variable,3.5,-,N/A,,Clear,0,2013-08-04 18:53:00
2:53 PM,79.0,55.0,44,30.15,10.0,Variable,3.5,-,N/A,,Clear,0,2013-08-04 19:53:00
3:53 PM,79.0,54.0,42,30.13,10.0,Variable,3.5,-,N/A,,Clear,0,2013-08-04 20:53:00
4:53 PM,79.0,57.0,47,30.12,10.0,South,5.8,-,N/A,,Clear,190,2013-08-04 21:53:00
5:53 PM,78.1,57.9,50,30.10,10.0,Calm,Calm,-,N/A,,Clear,0,2013-08-04 22:53:00
6:53 PM,78.1,57.0,48,30.09,10.0,East,4.6,-,N/A,,Clear,90,2013-08-04 23:53:00
7:53 PM,73.9,57.9,57,30.09,10.0,East,3.5,-,N/A,,Clear,100,2013-08-05 00:53:00
8:53 PM,72.0,57.9,61,30.09,10.0,East,3.5,-,N/A,,Clear,80,2013-08-05 01:53:00
9:53 PM,70.0,57.0,63,30.09,10.0,ESE,3.5,-,N/A,,Clear,110,2013-08-05 02:53:00
10:53 PM,68.0,57.0,68,30.10,10.0,SE,4.6,-,N/A,,Clear,130,2013-08-05 03:53:00
11:53 PM,66.9,57.0,70,30.09,10.0,SE,4.6,-,N/A,,Clear,130,2013-08-05 04:53:00